Time,TemperatureF,DewpointF,PressureIn,WindDirection,WindDirectionDegrees,WindSpeedMPH,WindSpeedGustMPH,Humidity,HourlyPrecipIn,Conditions,Clouds,dailyrainin,SoftwareType,DateUTC
2013-01-27 09:27:00,28.3,27.8,30.47,ENE,75,0.0,0.0,98,0.00,,CLR,0.00,VWS V14.00,2013-01-27 14:27:00,
2013-01-27 09:32:00,29.2,28.6,30.48,SE,135,0.0,0.0,98,0.00,,FEW009,0.00,VWS V14.00,2013-01-27 14:32:00,
2013-01-27 09:37:00,29.2,28.4,30.48,SE,134,8.6,8.6,97,0.00,,FEW009,0.00,VWS V14.00,2013-01-27 14:37:00,
2013-01-27 09:42:00,29.5,28.6,30.48,NE,44,0.0,8.6,96,0.00,,FEW009,0.00,VWS V14.00,2013-01-27 14:42:00,
2013-01-27 09:47:00,29.4,28.4,30.49,SSE,163,0.0,5.6,96,0.00,,CLR,0.00,VWS V14.00,2013-01-27 14:47:00,
2013-01-27 09:52:00,29.3,28.0,30.49,SE,143,0.0,7.5,95,0.00,,CLR,0.00,VWS V14.00,2013-01-27 14:52:00,
2013-01-27 09:57:00,30.2,28.9,30.49,SE,127,3.4,7.5,95,0.00,,CLR,0.00,VWS V14.00,2013-01-27 14:57:00,
2013-01-27 10:02:00,30.8,29.6,30.49,ESE,115,0.0,4.3,95,0.00,,CLR,0.00,VWS V14.00,2013-01-27 15:02:00,
2013-01-27 10:07:00,30.5,29.0,30.49,ESE,122,2.5,7.0,94,0.00,,CLR,0.00,VWS V14.00,2013-01-27 15:07:00,
2013-01-27 10:12:00,30.4,28.9,30.49,South,186,0.0,7.6,94,0.00,,CLR,0.00,VWS V14.00,2013-01-27 15:12:00,
2013-01-27 10:17:00,30.6,29.0,30.49,ESE,118,0.0,5.5,94,0.00,,CLR,0.00,VWS V14.00,2013-01-27 15:17:00,
2013-01-27 10:22:00,30.7,29.1,30.50,SE,139,0.0,6.0,94,0.00,,CLR,0.00,VWS V14.00,2013-01-27 15:22:00,
2013-01-27 10:27:00,31.2,29.3,30.50,ESE,112,7.9,8.1,92,0.00,,CLR,0.00,VWS V14.00,2013-01-27 15:27:00,
2013-01-27 10:32:00,31.1,29.5,30.50,SE,135,0.0,5.1,94,0.00,,CLR,0.00,VWS V14.00,2013-01-27 15:32:00,
2013-01-27 10:37:00,30.6,28.6,30.50,SSE,156,2.8,8.8,92,0.00,,CLR,0.00,VWS V14.00,2013-01-27 15:37:00,
2013-01-27 10:42:00,31.0,28.9,30.50,SE,145,0.0,8.8,92,0.00,,CLR,0.00,VWS V14.00,2013-01-27 15:42:00,
2013-01-27 10:47:00,31.5,29.4,30.50,SE,136,6.3,6.3,92,0.00,,CLR,0.00,VWS V14.00,2013-01-27 15:47:00,
2013-01-27 10:52:00,31.6,28.7,30.50,SE,131,6.4,10.8,89,0.00,,CLR,0.00,VWS V14.00,2013-01-27 15:52:00,
2013-01-27 10:57:00,29.2,26.7,30.49,SSE,158,3.0,10.8,90,0.00,,CLR,0.00,VWS V14.00,2013-01-27 15:57:00,
2013-01-27 11:02:00,29.7,26.8,30.49,South,188,3.4,4.8,89,0.00,,CLR,0.00,VWS V14.00,2013-01-27 16:02:00,
2013-01-27 11:07:00,29.4,26.0,30.49,SSE,152,7.4,10.1,87,0.00,,CLR,0.00,VWS V14.00,2013-01-27 16:07:00,
2013-01-27 11:12:00,29.3,26.2,30.49,SSW,210,0.0,10.1,88,0.00,,CLR,0.00,VWS V14.00,2013-01-27 16:12:00,
2013-01-27 11:17:00,29.9,26.2,30.49,SSW,193,0.0,8.0,86,0.00,,CLR,0.00,VWS V14.00,2013-01-27 16:17:00,
2013-01-27 11:22:00,31.7,27.8,30.49,SE,142,3.5,9.0,85,0.00,,CLR,0.00,VWS V14.00,2013-01-27 16:22:00,
2013-01-27 11:27:00,31.8,27.6,30.49,South,173,0.0,9.6,84,0.00,,CLR,0.00,VWS V14.00,2013-01-27 16:27:00,
2013-01-27 11:32:00,32.9,28.9,30.49,SW,231,4.8,6.8,85,0.00,,CLR,0.00,VWS V14.00,2013-01-27 16:32:00,
2013-01-27 11:37:00,31.5,27.3,30.49,South,190,5.3,6.9,84,0.00,,CLR,0.00,VWS V14.00,2013-01-27 16:37:00,
2013-01-27 11:42:00,31.8,27.6,30.49,SSW,198,4.8,8.5,84,0.00,,CLR,0.00,VWS V14.00,2013-01-27 16:42:00,
2013-01-27 11:47:00,28.9,24.1,30.49,SSW,202,0.0,8.6,82,0.00,,CLR,0.00,VWS V14.00,2013-01-27 16:47:00,
2013-01-27 11:52:00,29.3,24.2,30.49,South,173,0.0,8.6,81,0.00,,CLR,0.00,VWS V14.00,2013-01-27 16:52:00,
2013-01-27 11:57:00,32.9,28.2,30.49,SE,125,1.7,8.6,83,0.00,,CLR,0.00,VWS V14.00,2013-01-27 16:57:00,
2013-01-27 12:02:00,34.6,29.5,30.48,SSW,205,9.2,10.7,81,0.00,,CLR,0.00,VWS V14.00,2013-01-27 17:02:00,
2013-01-27 12:07:00,32.7,27.1,30.48,SW,221,3.4,10.7,80,0.00,,CLR,0.00,VWS V14.00,2013-01-27 17:07:00,
2013-01-27 12:12:00,33.6,28.1,30.48,ESE,111,3.4,10.7,80,0.00,,CLR,0.00,VWS V14.00,2013-01-27 17:12:00,
2013-01-27 12:17:00,35.0,28.9,30.47,SE,136,0.0,8.1,78,0.00,,CLR,0.00,VWS V14.00,2013-01-27 17:17:00,
2013-01-27 12:22:00,35.1,29.2,30.47,SSW,193,0.0,8.1,79,0.00,,CLR,0.00,VWS V14.00,2013-01-27 17:22:00,
2013-01-27 12:27:00,35.6,29.6,30.47,SSW,198,3.4,8.1,79,0.00,,CLR,0.00,VWS V14.00,2013-01-27 17:27:00,
2013-01-27 12:32:00,35.4,29.7,30.46,SW,214,0.0,7.6,80,0.00,,CLR,0.00,VWS V14.00,2013-01-27 17:32:00,
2013-01-27 12:37:00,35.5,29.6,30.46,South,180,0.0,9.4,79,0.00,,CLR,0.00,VWS V14.00,2013-01-27 17:37:00,
2013-01-27 12:42:00,35.5,29.3,30.45,SE,124,0.0,9.4,78,0.00,,CLR,0.00,VWS V14.00,2013-01-27 17:42:00,
2013-01-27 12:47:00,36.1,29.9,30.44,SE,141,2.9,6.4,78,0.00,,FEW024,0.00,VWS V14.00,2013-01-27 17:47:00,
2013-01-27 12:52:00,36.6,30.5,30.44,SE,128,0.0,7.3,78,0.00,,FEW024,0.00,VWS V14.00,2013-01-27 17:52:00,
2013-01-27 12:57:00,36.5,30.2,30.44,SE,128,2.9,7.3,78,0.00,,FEW024,0.00,VWS V14.00,2013-01-27 17:57:00,
2013-01-27 13:02:00,36.4,30.1,30.43,East,90,0.0,0.0,78,0.00,,FEW024,0.00,VWS V14.00,2013-01-27 18:02:00,
2013-01-27 13:07:00,35.8,29.6,30.44,SE,145,4.2,9.8,78,0.00,,FEW024,0.00,VWS V14.00,2013-01-27 18:07:00,
2013-01-27 13:12:00,35.9,29.5,30.44,WSW,242,0.0,9.8,77,0.00,,FEW024,0.00,VWS V14.00,2013-01-27 18:12:00,
2013-01-27 13:17:00,36.0,29.9,30.45,WSW,242,0.0,0.0,78,0.00,,FEW024,0.00,VWS V14.00,2013-01-27 18:17:00,
2013-01-27 13:22:00,36.4,29.7,30.45,ESE,114,2.3,5.8,76,0.00,,FEW024,0.00,VWS V14.00,2013-01-27 18:22:00,
2013-01-27 13:27:00,36.2,29.9,30.45,ESE,114,0.0,5.8,78,0.00,,FEW024,0.00,VWS V14.00,2013-01-27 18:27:00,
2013-01-27 13:32:00,36.4,30.2,30.45,ESE,114,0.0,0.0,78,0.00,,FEW024,0.00,VWS V14.00,2013-01-27 18:32:00,
2013-01-27 13:37:00,36.7,30.4,30.44,ESE,110,4.6,4.6,78,0.00,,FEW024,0.00,VWS V14.00,2013-01-27 18:37:00,
2013-01-27 13:42:00,36.6,30.2,30.44,ESE,117,0.0,5.2,77,0.00,,FEW024,0.00,VWS V14.00,2013-01-27 18:42:00,
2013-01-27 13:47:00,37.1,30.6,30.44,ESE,117,0.0,0.0,77,0.00,,FEW028,0.00,VWS V14.00,2013-01-27 18:47:00,
2013-01-27 13:52:00,37.4,30.3,30.43,SSE,165,3.2,6.5,75,0.00,,FEW028,0.00,VWS V14.00,2013-01-27 18:52:00,
2013-01-27 13:57:00,37.8,30.9,30.44,SW,231,0.0,6.5,76,0.00,,FEW028,0.00,VWS V14.00,2013-01-27 18:57:00,
2013-01-27 14:02:00,36.5,29.2,30.44,SE,129,0.0,7.3,74,0.00,,FEW028,0.00,VWS V14.00,2013-01-27 19:02:00,
2013-01-27 14:07:00,35.2,27.6,30.44,SSW,210,7.4,10.9,73,0.00,,FEW028,0.00,VWS V14.00,2013-01-27 19:07:00,
2013-01-27 14:12:00,37.5,29.8,30.44,South,179,0.0,10.9,73,0.00,,FEW028,0.00,VWS V14.00,2013-01-27 19:12:00,
2013-01-27 14:17:00,37.7,29.5,30.43,ESE,105,5.4,6.5,72,0.00,,FEW028,0.00,VWS V14.00,2013-01-27 19:17:00,
2013-01-27 14:22:00,33.7,25.9,30.43,SE,125,0.0,6.5,73,0.00,,FEW028,0.00,VWS V14.00,2013-01-27 19:22:00,
2013-01-27 14:27:00,38.3,30.1,30.42,ENE,76,0.0,6.5,72,0.00,,FEW028,0.00,VWS V14.00,2013-01-27 19:27:00,
2013-01-27 14:32:00,38.4,30.3,30.43,ENE,76,0.0,0.0,72,0.00,,BKN032,0.00,VWS V14.00,2013-01-27 19:32:00,
2013-01-27 14:37:00,39.0,31.1,30.43,ENE,76,0.0,0.0,73,0.00,,BKN032,0.00,VWS V14.00,2013-01-27 19:37:00,
2013-01-27 14:42:00,39.1,30.5,30.43,ENE,76,0.0,0.0,71,0.00,,BKN032,0.00,VWS V14.00,2013-01-27 19:42:00,
2013-01-27 14:47:00,35.7,27.2,30.42,SSW,195,4.6,4.6,71,0.00,,BKN032,0.00,VWS V14.00,2013-01-27 19:47:00,
2013-01-27 14:52:00,35.4,26.7,30.42,South,172,0.0,5.3,70,0.00,,BKN032,0.00,VWS V14.00,2013-01-27 19:52:00,
2013-01-27 14:57:00,35.0,26.3,30.42,SSW,208,4.7,5.3,70,0.00,,BKN032,0.00,VWS V14.00,2013-01-27 19:57:00,
2013-01-27 15:02:00,36.1,27.4,30.42,South,183,5.5,5.5,70,0.00,,BKN032,0.00,VWS V14.00,2013-01-27 20:02:00,
2013-01-27 15:07:00,34.8,26.1,30.43,SW,226,0.0,5.5,70,0.00,,BKN032,0.00,VWS V14.00,2013-01-27 20:07:00,
2013-01-27 15:12:00,36.2,27.5,30.43,ESE,108,0.0,5.5,70,0.00,,BKN032,0.00,VWS V14.00,2013-01-27 20:12:00,
2013-01-27 15:17:00,33.6,25.1,30.42,ESE,108,0.0,3.4,71,0.00,,BKN032,0.00,VWS V14.00,2013-01-27 20:17:00,
2013-01-27 15:22:00,33.1,24.3,30.43,SSW,204,0.0,4.8,70,0.00,,BKN032,0.00,VWS V14.00,2013-01-27 20:22:00,
2013-01-27 15:27:00,33.7,25.1,30.42,South,188,0.0,4.8,70,0.00,,BKN032,0.00,VWS V14.00,2013-01-27 20:27:00,
2013-01-27 15:32:00,33.1,24.6,30.42,SSW,208,7.0,7.3,70,0.00,,BKN032,0.00,VWS V14.00,2013-01-27 20:32:00,
2013-01-27 15:37:00,36.1,27.2,30.41,SSW,205,0.0,7.3,70,0.00,,BKN032,0.00,VWS V14.00,2013-01-27 20:37:00,
2013-01-27 15:42:00,37.7,28.9,30.41,East,89,4.3,7.3,70,0.00,,BKN032,0.00,VWS V14.00,2013-01-27 20:42:00,
2013-01-27 15:47:00,36.2,27.5,30.41,SE,124,0.0,4.8,70,0.00,,CLR,0.00,VWS V14.00,2013-01-27 20:47:00,
2013-01-27 15:52:00,37.4,29.0,30.41,South,176,3.5,5.7,71,0.00,,CLR,0.00,VWS V14.00,2013-01-27 20:52:00,
2013-01-27 15:57:00,37.3,28.9,30.41,South,170,0.0,5.7,71,0.00,,CLR,0.00,VWS V14.00,2013-01-27 20:57:00,
2013-01-27 16:02:00,34.0,25.7,30.41,South,170,0.0,0.0,71,0.00,,CLR,0.00,VWS V14.00,2013-01-27 21:02:00,
2013-01-27 16:07:00,37.5,29.3,30.42,South,170,0.0,0.0,72,0.00,,CLR,0.00,VWS V14.00,2013-01-27 21:07:00,
2013-01-27 16:12:00,39.1,30.6,30.42,South,170,0.0,0.0,71,0.00,,CLR,0.00,VWS V14.00,2013-01-27 21:12:00,
2013-01-27 16:17:00,39.1,30.8,30.42,South,170,0.0,0.0,72,0.00,,CLR,0.00,VWS V14.00,2013-01-27 21:17:00,
2013-01-27 16:22:00,39.4,31.0,30.43,South,170,0.0,0.0,72,0.00,,CLR,0.00,VWS V14.00,2013-01-27 21:22:00,
2013-01-27 16:27:00,39.2,30.9,30.43,SW,224,0.0,5.9,72,0.00,,CLR,0.00,VWS V14.00,2013-01-27 21:27:00,
2013-01-27 16:32:00,39.2,31.0,30.43,SW,224,0.0,0.0,72,0.00,,CLR,0.00,VWS V14.00,2013-01-27 21:32:00,
2013-01-27 16:37:00,39.2,31.2,30.43,SW,224,0.0,0.0,73,0.00,,CLR,0.00,VWS V14.00,2013-01-27 21:37:00,
2013-01-27 16:42:00,39.2,31.2,30.43,SW,224,0.0,0.0,73,0.00,,CLR,0.00,VWS V14.00,2013-01-27 21:42:00,
2013-01-27 16:47:00,39.4,31.5,30.42,SW,224,0.0,0.0,73,0.00,,CLR,0.00,VWS V14.00,2013-01-27 21:47:00,
2013-01-27 16:52:00,39.3,31.4,30.43,SW,224,0.0,0.0,73,0.00,,CLR,0.00,VWS V14.00,2013-01-27 21:52:00,
2013-01-27 16:58:00,39.3,31.4,30.43,SW,224,0.0,0.0,73,0.00,,CLR,0.00,VWS V14.00,2013-01-27 21:58:00,
2013-01-27 17:03:00,39.1,31.3,30.43,SW,224,0.0,0.0,73,0.00,,CLR,0.00,VWS V14.00,2013-01-27 22:03:00,
2013-01-27 17:07:00,39.1,31.3,30.44,SW,224,0.0,0.0,73,0.00,,CLR,0.00,VWS V14.00,2013-01-27 22:07:00,
2013-01-27 17:13:00,38.8,31.1,30.43,SW,224,0.0,0.0,74,0.00,,CLR,0.00,VWS V14.00,2013-01-27 22:13:00,
2013-01-27 17:18:00,38.8,31.2,30.43,SW,224,0.0,0.0,74,0.00,,CLR,0.00,VWS V14.00,2013-01-27 22:18:00,
2013-01-27 17:23:00,38.6,31.1,30.43,SE,128,0.0,4.1,74,0.00,,CLR,0.00,VWS V14.00,2013-01-27 22:23:00,
2013-01-27 17:28:00,38.5,31.1,30.43,SE,145,0.0,4.2,75,0.00,,CLR,0.00,VWS V14.00,2013-01-27 22:28:00,
2013-01-27 17:33:00,38.3,31.0,30.43,ESE,108,0.0,4.7,75,0.00,,CLR,0.00,VWS V14.00,2013-01-27 22:33:00,
2013-01-27 17:38:00,38.3,31.1,30.43,SE,125,0.0,4.7,75,0.00,,CLR,0.00,VWS V14.00,2013-01-27 22:38:00,
2013-01-27 17:43:00,38.3,31.2,30.43,SE,125,0.0,4.7,75,0.00,,CLR,0.00,VWS V14.00,2013-01-27 22:43:00,
2013-01-27 17:48:00,38.2,31.1,30.43,ESE,114,0.0,3.0,75,0.00,,CLR,0.00,VWS V14.00,2013-01-27 22:48:00,
2013-01-27 17:53:00,38.0,31.1,30.43,SE,128,3.0,4.5,76,0.00,,CLR,0.00,VWS V14.00,2013-01-27 22:53:00,
2013-01-27 17:58:00,38.0,31.2,30.42,SE,143,0.0,4.9,76,0.00,,CLR,0.00,VWS V14.00,2013-01-27 22:58:00,
2013-01-27 18:03:00,38.0,31.2,30.43,SSE,149,3.4,3.4,76,0.00,,CLR,0.00,VWS V14.00,2013-01-27 23:03:00,
2013-01-27 18:08:00,37.3,30.6,30.43,SE,139,0.0,4.2,77,0.00,,CLR,0.00,VWS V14.00,2013-01-27 23:08:00,
2013-01-27 18:13:00,37.8,31.2,30.42,SE,145,0.0,4.3,77,0.00,,CLR,0.00,VWS V14.00,2013-01-27 23:13:00,
2013-01-27 18:18:00,37.7,31.1,30.43,SE,145,0.0,2.5,77,0.00,,CLR,0.00,VWS V14.00,2013-01-27 23:18:00,
2013-01-27 18:23:00,37.4,30.8,30.44,ESE,120,0.0,4.4,77,0.00,,CLR,0.00,VWS V14.00,2013-01-27 23:23:00,
2013-01-27 18:28:00,37.5,31.1,30.43,ESE,120,0.0,4.4,77,0.00,,CLR,0.00,VWS V14.00,2013-01-27 23:28:00,
2013-01-27 18:33:00,37.6,31.2,30.43,ESE,120,0.0,0.0,78,0.00,,CLR,0.00,VWS V14.00,2013-01-27 23:33:00,
2013-01-27 18:38:00,37.4,31.0,30.44,SE,141,0.0,4.4,78,0.00,,CLR,0.00,VWS V14.00,2013-01-27 23:38:00,
2013-01-27 18:43:00,37.3,31.0,30.44,SSW,200,0.0,4.4,78,0.00,,CLR,0.00,VWS V14.00,2013-01-27 23:43:00,
2013-01-27 18:48:00,37.4,31.1,30.44,SSW,200,5.5,8.1,78,0.00,,CLR,0.00,VWS V14.00,2013-01-27 23:48:00,
2013-01-27 18:53:00,37.4,31.0,30.44,SSE,155,0.0,8.1,78,0.00,,CLR,0.00,VWS V14.00,2013-01-27 23:53:00,
2013-01-27 18:58:00,37.2,30.9,30.44,SSE,155,0.0,8.1,78,0.00,,CLR,0.00,VWS V14.00,2013-01-27 23:58:00,
2013-01-27 19:03:00,37.4,31.0,30.44,South,184,0.0,0.0,78,0.00,,CLR,0.00,VWS V14.00,2013-01-28 00:03:00,
2013-01-27 19:08:00,37.1,30.7,30.44,South,188,0.0,4.5,77,0.00,,CLR,0.00,VWS V14.00,2013-01-28 00:08:00,
2013-01-27 19:13:00,36.8,30.2,30.43,WSW,240,0.0,6.6,77,0.00,,CLR,0.00,VWS V14.00,2013-01-28 00:13:00,
2013-01-27 19:18:00,37.2,30.8,30.43,South,188,0.0,4.2,77,0.00,,CLR,0.00,VWS V14.00,2013-01-28 00:18:00,
2013-01-27 19:23:00,37.1,30.7,30.43,SSW,197,0.0,5.2,77,0.00,,CLR,0.00,VWS V14.00,2013-01-28 00:23:00,
2013-01-27 19:28:00,36.8,30.4,30.42,SE,146,0.0,5.2,78,0.00,,CLR,0.00,VWS V14.00,2013-01-28 00:28:00,
2013-01-27 19:33:00,37.1,30.9,30.42,SSW,204,0.0,0.0,78,0.00,,CLR,0.00,VWS V14.00,2013-01-28 00:33:00,
2013-01-27 19:38:00,36.9,30.6,30.43,SSW,202,4.8,6.0,78,0.00,,CLR,0.00,VWS V14.00,2013-01-28 00:38:00,
2013-01-27 19:43:00,36.9,30.7,30.43,SW,224,0.0,6.4,78,0.00,,CLR,0.00,VWS V14.00,2013-01-28 00:43:00,
2013-01-27 19:48:00,36.8,30.6,30.43,South,184,0.0,5.7,78,0.00,,CLR,0.00,VWS V14.00,2013-01-28 00:48:00,
2013-01-27 19:53:00,36.5,30.4,30.44,SW,222,0.0,6.3,78,0.00,,CLR,0.00,VWS V14.00,2013-01-28 00:53:00,
2013-01-27 19:58:00,36.6,30.5,30.43,SSW,212,0.0,7.3,78,0.00,,CLR,0.00,VWS V14.00,2013-01-28 00:58:00,
2013-01-27 20:03:00,36.8,30.8,30.43,SSW,212,0.0,0.0,79,0.00,,CLR,0.00,VWS V14.00,2013-01-28 01:03:00,
2013-01-27 20:08:00,36.8,30.8,30.44,SSW,197,0.0,6.8,79,0.00,,CLR,0.00,VWS V14.00,2013-01-28 01:08:00,
2013-01-27 20:13:00,36.7,30.8,30.43,SSW,208,3.3,6.8,79,0.00,,CLR,0.00,VWS V14.00,2013-01-28 01:13:00,